| time (UTC) | temp F | wind direction | speed MPH | gust MPH | rain 1hr in | rain 24hr in | rain mn in | humidity % | barometer mb |
| 20260504231329 | 52 | 342 | 5.0 | 6.0 | 0.00 | 0.00 | 0.00 | 40 | 1001.8 |
| 20260504230825 | 51 | 21 | 6.0 | 8.0 | 0.00 | 0.00 | 0.00 | 42 | 1001.9 |
| 20260504230323 | 51 | 335 | 5.0 | 6.0 | 0.00 | 0.00 | 0.00 | 43 | 1001.9 |
| 20260504225822 | 52 | 4 | 6.0 | 7.0 | 0.00 | 0.00 | 0.00 | 43 | 1001.9 |
| 20260504225318 | 52 | 352 | 6.0 | 7.0 | 0.00 | 0.00 | 0.00 | 42 | 1001.6 |
| 20260504224816 | 53 | 350 | 6.0 | 7.0 | 0.00 | 0.00 | 0.00 | 41 | 1001.6 |
| 20260504224312 | 52 | 316 | 4.0 | 5.0 | 0.00 | 0.00 | 0.00 | 42 | 1001.8 |
| 20260504223809 | 53 | 298 | 3.0 | 5.0 | 0.00 | 0.00 | 0.00 | 42 | 1001.5 |
| 20260504223304 | 52 | 313 | 7.0 | 8.0 | 0.00 | 0.00 | 0.00 | 42 | 1001.5 |
| 20260504222801 | 52 | 324 | 8.0 | 9.0 | 0.00 | 0.00 | 0.00 | 42 | 1001.4 |
| 20260504222258 | 53 | 316 | 6.0 | 10.0 | 0.00 | 0.00 | 0.00 | 43 | 1001.4 |
| 20260504221756 | 53 | 9 | 11.0 | 14.0 | 0.00 | 0.00 | 0.00 | 42 | 1001.2 |
| 20260504221253 | 52 | 319 | 9.0 | 13.0 | 0.00 | 0.00 | 0.00 | 43 | 1001.3 |
| 20260504220749 | 52 | 283 | 9.0 | 11.0 | 0.00 | 0.00 | 0.00 | 44 | 1001.4 |
| 20260504220246 | 52 | 331 | 6.0 | 7.0 | 0.00 | 0.00 | 0.00 | 44 | 1001.2 |
| 20260504215744 | 52 | 332 | 7.0 | 9.0 | 0.00 | 0.00 | 0.00 | 45 | 1001.2 |
| 20260504215240 | 53 | 341 | 6.0 | 8.0 | 0.00 | 0.00 | 0.00 | 45 | 1000.9 |
| 20260504214736 | 53 | 22 | 9.0 | 13.0 | 0.00 | 0.00 | 0.00 | 44 | 1001.1 |
| 20260504214233 | 53 | 331 | 10.0 | 11.0 | 0.00 | 0.00 | 0.00 | 44 | 1000.9 |
| 20260504213730 | 53 | 336 | 7.0 | 8.0 | 0.00 | 0.00 | 0.00 | 44 | 1000.6 |
| 20260504213226 | 53 | 303 | 7.0 | 8.0 | 0.00 | 0.00 | 0.00 | 45 | 1000.7 |
| 20260504212723 | 54 | 0 | 13.0 | 16.0 | 0.00 | 0.00 | 0.00 | 44 | 1000.7 |
| 20260504212220 | 53 | 16 | 12.0 | 21.0 | 0.00 | 0.00 | 0.00 | 44 | 1000.5 |
| 20260504211717 | 54 | 347 | 8.0 | 11.0 | 0.00 | 0.00 | 0.00 | 43 | 1000.7 |
| 20260504211213 | 55 | 332 | 6.0 | 7.0 | 0.00 | 0.00 | 0.00 | 43 | 1000.4 |
| 20260504210711 | 55 | 312 | 9.0 | 10.0 | 0.00 | 0.00 | 0.00 | 42 | 1000.5 |
| 20260504210208 | 54 | 344 | 5.0 | 7.0 | 0.00 | 0.00 | 0.00 | 42 | 1000.6 |
| 20260504205705 | 55 | 311 | 8.0 | 9.0 | 0.00 | 0.00 | 0.00 | 41 | 1000.3 |
| 20260504205202 | 56 | 277 | 8.0 | 10.0 | 0.00 | 0.00 | 0.00 | 42 | 1000.2 |
| 20260504204700 | 57 | 279 | 11.0 | 15.0 | 0.00 | 0.00 | 0.00 | 40 | 1000.2 |
| 20260504204159 | 55 | 275 | 6.0 | 7.0 | 0.00 | 0.00 | 0.00 | 43 | 1000.0 |
| 20260504203657 | 55 | 281 | 9.0 | 9.0 | 0.00 | 0.00 | 0.00 | 43 | 1000.1 |
| 20260504203154 | 56 | 6 | 15.0 | 18.0 | 0.00 | 0.00 | 0.00 | 42 | 999.9 |
| 20260504202649 | 57 | 357 | 7.0 | 9.0 | 0.00 | 0.00 | 0.00 | 41 | 1000.0 |
| 20260504202146 | 57 | 262 | 5.0 | 6.0 | 0.00 | 0.00 | 0.00 | 40 | 999.8 |
| 20260504201643 | 57 | 339 | 9.0 | 10.0 | 0.00 | 0.00 | 0.00 | 42 | 999.9 |
| 20260504201141 | 56 | 316 | 9.0 | 10.0 | 0.00 | 0.00 | 0.00 | 42 | 999.8 |
| 20260504200638 | 56 | 327 | 11.0 | 14.0 | 0.00 | 0.00 | 0.00 | 42 | 1000.0 |
| 20260504200134 | 57 | 291 | 8.0 | 9.0 | 0.00 | 0.00 | 0.00 | 42 | 999.7 |
| 20260504195630 | 57 | 307 | 10.0 | 13.0 | 0.00 | 0.00 | 0.00 | 40 | 999.6 |
| 20260504195126 | 57 | 322 | 7.0 | 9.0 | 0.00 | 0.00 | 0.00 | 41 | 999.5 |
| 20260504194623 | 56 | 359 | 11.0 | 15.0 | 0.00 | 0.00 | 0.00 | 43 | 999.6 |
| 20260504194119 | 57 | 302 | 9.0 | 11.0 | 0.00 | 0.00 | 0.00 | 42 | 999.5 |
| 20260504193616 | 57 | 336 | 10.0 | 13.0 | 0.00 | 0.00 | 0.00 | 41 | 999.4 |
| 20260504193114 | 57 | 359 | 12.0 | 14.0 | 0.00 | 0.00 | 0.00 | 42 | 999.2 |
| 20260504192612 | 57 | 272 | 8.0 | 9.0 | 0.00 | 0.00 | 0.00 | 42 | 999.4 |
| 20260504192110 | 57 | 312 | 9.0 | 10.0 | 0.00 | 0.00 | 0.00 | 44 | 999.1 |
| 20260504191608 | 57 | 280 | 6.0 | 7.0 | 0.00 | 0.00 | 0.00 | 45 | 999.2 |
| 20260504191104 | 59 | 339 | 8.0 | 9.0 | 0.00 | 0.00 | 0.00 | 44 | 999.1 |
| 20260504190600 | 57 | 339 | 6.0 | 7.0 | 0.00 | 0.00 | 0.00 | 45 | 998.8 |
| 20260504190056 | 57 | 12 | 10.0 | 13.0 | 0.00 | 0.00 | 0.00 | 44 | 998.7 |
| 20260504185553 | 59 | 16 | 13.0 | 24.0 | 0.00 | 0.00 | 0.00 | 44 | 998.7 |
| 20260504185050 | 58 | 316 | 7.0 | 7.0 | 0.00 | 0.00 | 0.00 | 43 | 998.6 |
| 20260504184545 | 58 | 314 | 8.0 | 10.0 | 0.00 | 0.00 | 0.00 | 43 | 998.5 |
| 20260504184041 | 59 | 16 | 7.0 | 10.0 | 0.00 | 0.00 | 0.00 | 44 | 998.3 |
| 20260504183538 | 57 | 327 | 5.0 | 7.0 | 0.00 | 0.00 | 0.00 | 46 | 998.5 |
| 20260504183036 | 57 | 296 | 7.0 | 10.0 | 0.00 | 0.00 | 0.00 | 46 | 998.4 |
| 20260504182533 | 57 | 20 | 4.0 | 6.0 | 0.00 | 0.00 | 0.00 | 46 | 998.4 |
| 20260504182030 | 58 | 292 | 9.0 | 10.0 | 0.00 | 0.00 | 0.00 | 45 | 998.1 |
| 20260504181527 | 59 | 324 | 5.0 | 7.0 | 0.00 | 0.00 | 0.00 | 44 | 998.2 |
| 20260504181026 | 59 | 319 | 7.0 | 8.0 | 0.00 | 0.00 | 0.00 | 44 | 998.1 |
| 20260504180524 | 59 | 333 | 7.0 | 9.0 | 0.00 | 0.00 | 0.00 | 44 | 997.9 |
| 20260504180023 | 59 | 252 | 6.0 | 8.0 | 0.00 | 0.00 | 0.00 | 46 | 998.0 |
| 20260504175519 | 59 | 0 | 5.0 | 6.0 | 0.00 | 0.00 | 0.00 | 43 | 997.9 |
| 20260504175016 | 59 | 278 | 10.0 | 13.0 | 0.00 | 0.00 | 0.00 | 43 | 997.9 |
| 20260504174514 | 59 | 273 | 7.0 | 9.0 | 0.00 | 0.00 | 0.00 | 43 | 997.6 |
| 20260504174011 | 59 | 312 | 5.0 | 7.0 | 0.00 | 0.00 | 0.00 | 41 | 997.5 |
| 20260504173508 | 58 | 329 | 9.0 | 13.0 | 0.00 | 0.00 | 0.00 | 42 | 997.6 |
| 20260504173005 | 59 | 259 | 5.0 | 6.0 | 0.00 | 0.00 | 0.00 | 42 | 997.8 |
| 20260504172501 | 58 | 326 | 6.0 | 8.0 | 0.00 | 0.00 | 0.00 | 41 | 997.7 |
| 20260504171957 | 59 | 303 | 9.0 | 10.0 | 0.00 | 0.00 | 0.00 | 41 | 997.9 |
| 20260504171455 | 59 | 318 | 11.0 | 13.0 | 0.00 | 0.00 | 0.00 | 40 | 997.9 |
| 20260504170951 | 59 | 288 | 5.0 | 8.0 | 0.00 | 0.00 | 0.00 | 43 | 997.4 |
| 20260504170447 | 58 | 271 | 6.0 | 7.0 | 0.00 | 0.00 | 0.00 | 43 | 997.8 |
| 20260504160408 | 58 | 285 | 6.0 | 7.0 | 0.00 | 0.00 | 0.00 | 50 | 997.2 |
| 20260504150831 | 58 | 227 | 7.0 | 8.0 | 0.00 | 0.00 | 0.00 | 46 | 996.8 |
| 20260504150328 | 58 | 308 | 5.0 | 7.0 | 0.00 | 0.00 | 0.00 | 49 | 996.7 |
| 20260504141258 | 57 | 294 | 5.0 | 8.0 | 0.00 | 0.00 | 0.00 | 49 | 996.7 |
| 20260504140755 | 56 | 271 | 5.0 | 7.0 | 0.00 | 0.00 | 0.00 | 50 | 996.5 |
| 20260504140250 | 56 | 293 | 7.0 | 7.0 | 0.00 | 0.00 | 0.00 | 50 | 996.6 |
| 20260504130719 | 57 | 316 | 4.0 | 5.0 | 0.00 | 0.00 | 0.00 | 51 | 995.9 |
| 20260504130215 | 57 | 248 | 6.0 | 8.0 | 0.00 | 0.00 | 0.00 | 52 | 995.9 |
| 20260504120139 | 58 | 286 | 8.0 | 10.0 | 0.00 | 0.00 | 0.00 | 49 | 994.7 |
| 20260504110606 | 58 | 252 | 5.0 | 6.0 | 0.00 | 0.00 | 0.00 | 44 | 993.9 |
| 20260504100522 | 58 | 239 | 3.0 | 3.0 | 0.00 | 0.00 | 0.00 | 42 | 993.8 |
| 20260504081916 | 55 | 202 | 2.0 | 2.0 | 0.00 | 0.00 | 0.00 | 45 | 995.6 |
| 20260504081413 | 55 | 231 | 2.0 | 2.0 | 0.00 | 0.00 | 0.00 | 46 | 995.9 |
| 20260504080909 | 55 | 204 | 2.0 | 2.0 | 0.00 | 0.00 | 0.00 | 45 | 996.2 |
| 20260504080406 | 55 | 194 | 0.0 | 1.0 | 0.00 | 0.00 | 0.00 | 46 | 996.4 |
| 20260504070333 | 55 | 220 | 1.0 | 1.0 | 0.00 | 0.00 | 0.00 | 48 | 997.1 |
| 20260504050721 | 56 | 199 | 1.0 | 1.0 | 0.00 | 0.00 | 0.00 | 44 | 999.6 |
| 20260504050218 | 56 | 215 | 1.0 | 2.0 | 0.00 | 0.00 | 0.00 | 45 | 999.8 |
| 20260504045715 | 56 | 204 | 1.0 | 1.0 | 0.00 | 0.00 | 0.00 | 46 | 1000.0 |
| 20260504045215 | 57 | 207 | 1.0 | 2.0 | 0.00 | 0.00 | 0.00 | 45 | 1000.0 |
| 20260504044714 | 56 | 219 | 1.0 | 2.0 | 0.00 | 0.00 | 0.00 | 45 | 1000.0 |
| 20260504044211 | 56 | 208 | 2.0 | 2.0 | 0.00 | 0.00 | 0.00 | 44 | 1000.1 |
| 20260504043708 | 57 | 199 | 1.0 | 2.0 | 0.00 | 0.00 | 0.00 | 45 | 1000.3 |
| 20260504043204 | 57 | 203 | 1.0 | 1.0 | 0.00 | 0.00 | 0.00 | 44 | 1000.3 |
| 20260504042702 | 57 | 206 | 1.0 | 1.0 | 0.00 | 0.00 | 0.00 | 44 | 1000.4 |
| 20260504042158 | 57 | 214 | 1.0 | 1.0 | 0.00 | 0.00 | 0.00 | 44 | 1000.4 |
| 20260504041654 | 57 | 200 | 1.0 | 2.0 | 0.00 | 0.00 | 0.00 | 43 | 1000.4 |
| 20260504041150 | 57 | 201 | 1.0 | 2.0 | 0.00 | 0.00 | 0.00 | 43 | 1000.6 |
| 20260504040647 | 57 | 208 | 2.0 | 2.0 | 0.00 | 0.00 | 0.00 | 43 | 1000.8 |
| 20260504040144 | 56 | 212 | 1.0 | 1.0 | 0.00 | 0.00 | 0.00 | 45 | 1000.9 |
| 20260504035641 | 55 | 212 | 1.0 | 1.0 | 0.00 | 0.00 | 0.00 | 45 | 1000.8 |
| 20260504035138 | 53 | 202 | 1.0 | 1.0 | 0.00 | 0.00 | 0.00 | 48 | 1001.1 |
| 20260504034635 | 54 | 211 | 1.0 | 1.0 | 0.00 | 0.00 | 0.00 | 54 | 1001.1 |
| 20260504034132 | 53 | 208 | 1.0 | 1.0 | 0.00 | 0.00 | 0.00 | 52 | 1001.3 |
| 20260504033630 | 53 | 196 | 1.0 | 1.0 | 0.00 | 0.00 | 0.00 | 55 | 1001.2 |
| 20260504033127 | 52 | 199 | 1.0 | 1.0 | 0.00 | 0.00 | 0.00 | 53 | 1001.6 |
| 20260504032624 | 52 | 198 | 1.0 | 1.0 | 0.00 | 0.00 | 0.00 | 56 | 1001.6 |
| 20260504032121 | 52 | 205 | 1.0 | 1.0 | 0.00 | 0.00 | 0.00 | 57 | 1001.7 |
| 20260504031618 | 53 | 200 | 1.0 | 1.0 | 0.00 | 0.00 | 0.00 | 55 | 1001.8 |
| 20260504031114 | 52 | 211 | 1.0 | 1.0 | 0.00 | 0.00 | 0.00 | 56 | 1001.8 |
| 20260504030611 | 52 | 213 | 1.0 | 1.0 | 0.00 | 0.00 | 0.00 | 59 | 1001.9 |
| 20260504030108 | 52 | 208 | 1.0 | 1.0 | 0.00 | 0.00 | 0.00 | 56 | 1001.9 |
| 20260504025605 | 53 | 213 | 0.0 | 1.0 | 0.00 | 0.00 | 0.00 | 59 | 1002.0 |
| 20260504025102 | 53 | 206 | 1.0 | 1.0 | 0.00 | 0.00 | 0.00 | 56 | 1002.0 |
| 20260504024559 | 53 | 212 | 0.0 | 0.0 | 0.00 | 0.00 | 0.00 | 59 | 1002.1 |
| 20260504024055 | 54 | 205 | 0.0 | 1.0 | 0.00 | 0.00 | 0.00 | 54 | 1002.0 |
| 20260504023552 | 55 | 203 | 1.0 | 1.0 | 0.00 | 0.00 | 0.00 | 54 | 1002.0 |
| 20260504023048 | 55 | 203 | 0.0 | 1.0 | 0.00 | 0.00 | 0.00 | 49 | 1002.0 |
| 20260504022544 | 55 | 200 | 0.0 | 0.0 | 0.00 | 0.00 | 0.00 | 53 | 1001.9 |
| 20260504022040 | 56 | 209 | 0.0 | 0.0 | 0.00 | 0.00 | 0.00 | 53 | 1002.1 |
| 20260504021538 | 56 | 206 | 0.0 | 0.0 | 0.00 | 0.00 | 0.00 | 48 | 1002.1 |
| 20260504021035 | 57 | 206 | 0.0 | 0.0 | 0.00 | 0.00 | 0.00 | 48 | 1002.1 |
| 20260504020532 | 58 | 204 | 0.0 | 0.0 | 0.00 | 0.00 | 0.00 | 48 | 1002.0 |
| 20260504020028 | 59 | 206 | 0.0 | 1.0 | 0.00 | 0.00 | 0.00 | 43 | 1002.1 |
| 20260504015524 | 60 | 209 | 0.0 | 0.0 | 0.00 | 0.00 | 0.00 | 41 | 1002.2 |
| 20260504015020 | 61 | 216 | 0.0 | 0.0 | 0.00 | 0.00 | 0.00 | 38 | 1002.0 |
| 20260504014517 | 62 | 221 | 1.0 | 1.0 | 0.00 | 0.00 | 0.00 | 36 | 1002.2 |
| 20260504014014 | 62 | 223 | 0.0 | 1.0 | 0.00 | 0.00 | 0.00 | 36 | 1002.2 |
| 20260504013512 | 62 | 234 | 1.0 | 1.0 | 0.00 | 0.00 | 0.00 | 35 | 1002.2 |
| 20260504013009 | 62 | 226 | 1.0 | 1.0 | 0.00 | 0.00 | 0.00 | 36 | 1002.2 |
| 20260504012506 | 63 | 203 | 0.0 | 1.0 | 0.00 | 0.00 | 0.00 | 39 | 1002.3 |
| 20260504012004 | 64 | 225 | 0.0 | 1.0 | 0.00 | 0.00 | 0.00 | 34 | 1002.2 |
| 20260504011500 | 64 | 234 | 0.0 | 0.0 | 0.00 | 0.00 | 0.00 | 33 | 1002.1 |
| 20260504010956 | 65 | 234 | 1.0 | 1.0 | 0.00 | 0.00 | 0.00 | 32 | 1002.1 |
| 20260504010452 | 65 | 249 | 1.0 | 2.0 | 0.00 | 0.00 | 0.00 | 31 | 1002.3 |
| 20260504005948 | 66 | 239 | 1.0 | 1.0 | 0.00 | 0.00 | 0.00 | 30 | 1002.2 |
| 20260504005445 | 66 | 230 | 0.0 | 1.0 | 0.00 | 0.00 | 0.00 | 30 | 1002.3 |
| 20260504004943 | 67 | 257 | 1.0 | 2.0 | 0.00 | 0.00 | 0.00 | 29 | 1002.6 |
| 20260504004440 | 67 | 256 | 2.0 | 2.0 | 0.00 | 0.00 | 0.00 | 29 | 1002.2 |
| 20260504003937 | 67 | 249 | 1.0 | 2.0 | 0.00 | 0.00 | 0.00 | 29 | 1002.4 |
| 20260504003433 | 67 | 265 | 1.0 | 2.0 | 0.00 | 0.00 | 0.00 | 29 | 1002.4 |
| 20260504002930 | 67 | 250 | 1.0 | 1.0 | 0.00 | 0.00 | 0.00 | 28 | 1002.3 |
| 20260504002427 | 67 | 244 | 1.0 | 1.0 | 0.00 | 0.00 | 0.00 | 28 | 1002.4 |
| 20260504001924 | 67 | 237 | 1.0 | 1.0 | 0.00 | 0.00 | 0.00 | 28 | 1002.4 |
| 20260504001422 | 67 | 266 | 2.0 | 2.0 | 0.00 | 0.00 | 0.00 | 27 | 1002.4 |
| 20260504000918 | 68 | 282 | 2.0 | 2.0 | 0.00 | 0.00 | 0.00 | 28 | 1002.6 |
| 20260504000416 | 67 | 259 | 3.0 | 3.0 | 0.00 | 0.00 | 0.00 | 26 | 1002.6 |
| 20260503235913 | 68 | 281 | 4.0 | 5.0 | 0.00 | 0.00 | 0.00 | 26 | 1002.6 |
| 20260503235411 | 68 | 290 | 3.0 | 3.0 | 0.00 | 0.00 | 0.00 | 25 | 1002.6 |
| 20260503234908 | 68 | 304 | 5.0 | 6.0 | 0.00 | 0.00 | 0.00 | 25 | 1002.7 |
| 20260503234405 | 69 | 206 | 4.0 | 6.0 | 0.00 | 0.00 | 0.00 | 25 | 1002.6 |
| 20260503233903 | 68 | 231 | 3.0 | 5.0 | 0.00 | 0.00 | 0.00 | 27 | 1002.6 |
| 20260503233359 | 68 | 293 | 5.0 | 6.0 | 0.00 | 0.00 | 0.00 | 25 | 1002.7 |
| 20260503232855 | 69 | 298 | 5.0 | 6.0 | 0.00 | 0.00 | 0.00 | 28 | 1002.6 |
| 20260503232353 | 68 | 315 | 4.0 | 5.0 | 0.00 | 0.00 | 0.00 | 28 | 1002.9 |
| 20260503231851 | 68 | 279 | 3.0 | 3.0 | 0.00 | 0.00 | 0.00 | 27 | 1002.8 |